Regional Weather Roundup
Issued by NWS Sterling, VA

Home | Current Version | Previous Version | Graphics & Text | Print | Product List | Glossary On
Versions: 1 2 3 4 5 6 7 8 9 10 11 12 13 14 15 16 17 18 19 20 21 22 23 24 25 26 27 28 29 30 31 32 33 34 35 36 37 38 39 40 41 42 43 44 45 46 47 48 49 50
000
ASUS41 KLWX 210411
RWRLWX

REGIONAL WEATHER ROUNDUP
NATIONAL WEATHER SERVICE BALTIMORE MD/WASHINGTON DC
1200 AM EDT TUE APR 21 2015

Note: "FAIR" indicates few or no clouds below 12,000 feet
with no significant weather and/or obstructions to visibility.
 TC=TEMPERATURE CELSIUS

 * =Non NWS site. Station does not report precipitation (e.g. rain,
    snow, etc.), thunder, or fog.

DCZ001-MDZ009-015-VAZ040>042-051-053>054-210500-
WASHINGTON METRO

CITY           SKY/WX    TMP DP  RH WIND       PRES   REMARKS
WASHINGTON NAT CLOUDY    64  57  78 S6        29.56R
DULLES         MOCLDY    66  54  65 W7        29.58R
ANDREWS AFB    CLOUDY    62  59  91 SW6       29.55S
FT BELVOIR     MOCLDY    65  59  79 SW3       29.56S
QUANTICO       CLOUDY    66  59  78 W7        29.57R
COLLEGE PARK*  CLOUDY    63  59  88 CALM      29.55S
LEESBURG*      CLOUDY    64  55  72 N6        29.59R
MANASSAS*      MOCLDY    63  59  88 CALM      29.57R
GAITHERSBURG*  MOCLDY    61  54  77 NW8       29.63R

$$

MDZ006>007-011-014-210500-
BALTIMORE METRO

CITY           SKY/WX    TMP DP  RH WIND       PRES   REMARKS
BWI AIRPORT    CLOUDY    62  54  74 W5        29.55R
MD SCIENCE CTR   N/A     64  55  72 MISG      29.56R
MARTIN STATE   CLOUDY    63  57  82 CALM      29.56S
ANNAPOLIS      CLOUDY    63  55  75 CALM      29.54F
FORT MEADE*    CLOUDY    57  55  94 CALM      29.58R

$$

MDZ012-015-019>023-210500-
MARYLAND EASTERN SHORE

CITY           SKY/WX    TMP DP  RH WIND       PRES   REMARKS
OCEAN CITY     CLOUDY    57  55  93 SW7       29.62F
SALISBURY      CLOUDY    70  60  70 S14       29.59F
BAY BRIDGE AP*   N/A    N/A N/A N/A SE8       29.55S
CAMBRIDGE*     CLOUDY    72  61  68 S8        29.58S
EASTON*        CLOUDY    70  61  73 S7        29.60F

$$

MDZ017>025-210500-
SOUTHERN MARYLAND

CITY           SKY/WX    TMP DP  RH WIND       PRES   REMARKS
PATUXENT RIVER CLOUDY    70  59  68 SW15G24   29.57S
ST INIGOES     CLOUDY    70  59  68 S16G24    29.58R
LEONARDTOWN*   CLOUDY    70  59  68 S10G16    29.59R

$$

MDZ003>005-210500-
NORTH CENTRAL MARYLAND

CITY           SKY/WX    TMP DP  RH WIND       PRES   REMARKS
FREDERICK*     CLOUDY    61  54  77 N3        29.60F
HAGERSTOWN APT LGT RAIN  61  54  77 CALM      29.59R
WESTMINSTER*   RAIN      61  57  88 NW12G24   29.61R

$$

MDZ501>502-210500-
WESTERN MARYLAND

CITY           SKY/WX    TMP DP  RH WIND       PRES   REMARKS
OAKLAND*       CLOUDY    45 N/A N/A W16G26    29.66R HAZE
CUMBERLAND*    MOCLDY    59  52  77 S6        29.64S

$$

VAZ025>031-210500-
SHENANDOAH VALLEY

CITY           SKY/WX    TMP DP  RH WIND       PRES   REMARKS
WINCHESTER*    CLOUDY    63  46  55 W5        29.61R
FRONT ROYAL*   NOT AVBL
LURAY*         NOT AVBL
NEW MARKET*    CLOUDY    60  51  71 CALM      29.61R
STAUNTON*      CLOUDY    58  53  83 SW3       29.66R
WAYNESBORO*    CLOUDY    56  54  91 SW6       29.65R

$$

WVZ021-048>050-054>055-210500-
EASTERN WEST VIRGINIA PANHANDLE

CITY           SKY/WX    TMP DP  RH WIND       PRES   REMARKS
MARTINSBURG    NOT AVBL
PETERSBURG*    NOT AVBL

$$

VAZ036>039-050-210500-
CENTRAL FOOTHILLS

CITY           SKY/WX    TMP DP  RH WIND       PRES   REMARKS
CHARLOTTESVILL LGT RAIN  58  55  90 VRB3      29.61R
CULPEPER*      MOCLDY    64  54  68 W7        29.59R THUNDER
ORANGE*        PTCLDY    61  54  77 SW5       29.61R
GORDONSVILLE*  NOT AVBL
WARRENTON*     FAIR      64  56  77 CALM      29.57R

$$

VAZ055>057-210500-
NORTH AND CENTRAL PIEDMONT

CITY           SKY/WX    TMP DP  RH WIND       PRES   REMARKS
FREDERICKSBRG* CLEAR     71  60  68 S12G20    29.56S
STAFFORD*      PTCLDY    63  32  31 CALM      29.61S

$$

NCZ024-NYZ072-PAZ021-071-VAZ022-071-210500-
OTHER REGIONAL OBSERVATIONS

CITY           SKY/WX    TMP DP  RH WIND       PRES   REMARKS
NEW YORK CITY  FOG       52  52 100 E8        29.61F VSB 3/4
PHILADELPHIA   LGT RAIN  63  56  78 SW18      29.58S
PITTSBURGH     LGT RAIN  51  42  71 W13G22    29.64R
ROANOKE        FAIR      58  48  69 W13       29.71R
RICHMOND       MOCLDY    69  59  70 S17       29.61F
RALEIGH        MOCLDY    68  63  84 SW16G22   29.68S THUNDER

$$

ANZ530>537-210500-
MARINE OBSERVATIONS

STATION/POSITION TIME  TEMP    WIND        PRES
                       AIR SEA DIR/SP/G
                 (UTC) (F)     (DEG/KT/KT) (MB)
THOMAS PT LIGHT  0400   61 56  170/ 10/ 11 1001.0F
BALT KEY BRIDGE  0300   63     150/ 13/ 14  999.8F
COVE POINT       0300   71     210/ 15/ 19 1001.1F
LEWISETTA        0300   72 65              1001.2F
SOLOMONS ISLAND  0300      58                N/A
PINEY POINT      0306          220/ 18/ 20   N/A

$$




USA.gov is the U.S. government's official web portal to all federal, state and local government web resources and services.